Find Kosmos-2070

NORAD ID: 20555 Int'l Des: 1990-029 Owner: UNKS Country: SU operational
LEOCIRCULAR

Live Position

Loading 3D Globe...

About Kosmos-2070

Description loading...

Upcoming Passes

Passes for default location (London). Set your location on the main map for personalized predictions.

Altitude History

Loading altitude history...

Two-Line Element Set

1 20555U 90029G 26104.83553406 -.00000009 00000-0 47570-4 0 9991
2 20555 73.9798 265.6769 0013074 62.6614 44.7392 12.52804424647472
Epoch: Apr 14, 2026 • Age: 7 hours

Current Status

Altitude 1478.1 km
Velocity 7.12 km/s
Sub-Earth Point -53.50°S, 3.4°W
Launch Date Apr 6, 1990
Age 36 years
Type other

Technical Details

Classification Payload
Mass 60.00 kg
Dry Mass 60.00 kg
Total Mass 60.00 kg
Length 0.80 m
Diameter 0.80 m
Span 0.80 m
Shape Poly
Manufacturer NPOPM
Bus Type Strela-1 11F625
Phase Status In Orbit
Owner/State UNKS/SU

Most Searched